Bennington, VT

2:00 PM EDT on June 25, 2017 (GMT -0400)
Morse State

Weather History for KDDH - February, 2013

Change the Weather History Date:

Friday, February 15, 2013

  Actual Average Record
Temperature  
Mean Temperature 36 °F 25 °F  
Max Temperature 46 °F 35 °F 40 °F (2017)
Min Temperature 26 °F 15 °F -12 °F (2016)
Degree Days  
Heating Degree Days 29 40  
Month to date heating degree days 624 621  
Since 1 July heating degree days 4312 4752  
Cooling Degree Days 0 0  
Month to date cooling degree days 0 0  
Year to date cooling degree days 0 0  
Moisture  
Dew Point 24 °F    
Average Humidity 59    
Maximum Humidity 75    
Minimum Humidity 43    
Precipitation  
Precipitation T in 0.07 in 0.04 in (2014)
Month to date precipitation 0.38 1.08  
Year to date precipitation 1.83 3.83  
Sea Level Pressure  
Sea Level Pressure 29.92 in    
Wind  
Wind Speed 4 mph (West)    
Max Wind Speed 13 mph    
Max Gust Speed 21 mph    
Visibility 8 miles    
Events Snow    
T = Trace of Precipitation, MM = Missing Value Source: NWS Daily Summary

Daily Weather History Graph

Daily Weather History Graph

Search for Another Location

Airport or City:

Trip Planner

Search our weather history database for the weather conditions in past years. The results will help you decide how hot, cold, wet, or windy it might be!

Date:

Astronomy

Feb. 15, 2013 Rise Set
Actual Time 6:50 AM EST 5:24 PM EST
Civil Twilight 6:20 AM EST 5:53 PM EST
Nautical Twilight 5:47 AM EST 6:27 PM EST
Astronomical Twilight 5:15 AM EST 6:59 PM EST
Moon 9:14 AM EST (2/15) 11:33 PM EST (2/15)
Length of Visible Light 11h 32m
Length of Day
10h 34m
Waxing Crescent, 30% of the Moon is Illuminated
Feb 15
Waxing Crescent
Feb 17
First Quarter
Feb 25
Full
Mar 4
Last Quarter
Mar 11
New

Hourly Weather History & Observations

Time (EST) Temp. Windchill Dew Point Humidity Pressure Visibility Wind Dir Wind Speed Gust Speed Precip Events Conditions
12:54 AM 28.9 °F - 21.9 °F 75% 29.93 in 10.0 mi Calm Calm - N/A   Overcast
1:27 AM 32.0 °F - 24.8 °F 75% 29.90 in 3.0 mi Calm Calm - 0.00 in Snow Light Snow
1:33 AM 33.8 °F 28.6 °F 24.8 °F 70% 29.90 in 1.8 mi South 5.8 mph - 0.00 in Snow Light Snow
1:54 AM 33.1 °F - 28.0 °F 82% 29.92 in 2.5 mi Calm Calm - 0.00 in Snow Light Snow
2:04 AM 33.8 °F 29.6 °F 28.4 °F 81% 29.89 in 4.0 mi SE 4.6 mph - 0.00 in Snow Light Snow
2:22 AM 33.8 °F 30.8 °F 28.4 °F 81% 29.89 in 6.0 mi Variable 3.5 mph - 0.00 in Snow Light Snow
2:54 AM 34.0 °F - 28.0 °F 79% 29.90 in 7.0 mi Calm Calm - 0.00 in   Overcast
3:54 AM 37.0 °F 34.5 °F 27.0 °F 67% 29.88 in 10.0 mi SW 3.5 mph - N/A   Overcast
4:54 AM 36.0 °F 32.1 °F 27.0 °F 70% 29.89 in 10.0 mi WNW 4.6 mph - N/A   Mostly Cloudy
5:54 AM 37.9 °F 35.5 °F 26.1 °F 62% 29.89 in 10.0 mi SSW 3.5 mph - N/A   Overcast
7:54 AM 37.9 °F 32.7 °F 25.0 °F 60% 29.91 in 10.0 mi SW 6.9 mph - N/A   Clear
8:54 AM 39.9 °F 35.8 °F 25.0 °F 55% 29.92 in 10.0 mi Variable 5.8 mph - N/A   Partly Cloudy
9:54 AM 42.1 °F 36.6 °F 25.0 °F 51% 29.93 in 10.0 mi SSW 9.2 mph - N/A   Clear
10:54 AM 44.1 °F 39.5 °F 25.0 °F 47% 29.92 in 10.0 mi SW 8.1 mph - N/A   Overcast
11:54 AM 44.1 °F 39.5 °F 25.0 °F 47% 29.92 in 10.0 mi West 8.1 mph 16.1 mph N/A   Overcast
12:54 PM 45.0 °F 41.2 °F 25.0 °F 46% 29.90 in 10.0 mi West 6.9 mph - N/A   Mostly Cloudy
1:54 PM 44.1 °F 40.8 °F 25.0 °F 47% 29.90 in 10.0 mi WNW 5.8 mph - N/A   Overcast
2:54 PM 43.0 °F 38.2 °F 24.1 °F 47% 29.91 in 10.0 mi NNW 8.1 mph - N/A   Overcast
3:54 PM 43.0 °F 39.5 °F 21.9 °F 43% 29.91 in 10.0 mi NW 5.8 mph - N/A   Overcast
4:54 PM 41.0 °F 35.8 °F 21.9 °F 47% 29.93 in 10.0 mi WNW 8.1 mph - N/A   Overcast
5:54 PM 37.9 °F - 21.9 °F 53% 29.94 in 10.0 mi Calm Calm - N/A   Partly Cloudy
6:54 PM 36.0 °F - 21.0 °F 55% 29.94 in 10.0 mi Calm Calm - N/A   Mostly Cloudy
7:54 PM 35.1 °F - 23.0 °F 61% 29.94 in 10.0 mi Calm Calm - N/A   Overcast
8:54 PM 37.0 °F - 19.0 °F 48% 29.94 in 10.0 mi Calm Calm - N/A   Overcast
9:54 PM 35.1 °F - 19.9 °F 54% 29.96 in 10.0 mi Calm Calm - N/A   Overcast
10:54 PM 35.1 °F 28.6 °F 21.0 °F 57% 29.95 in 10.0 mi West 8.1 mph - N/A   Overcast
11:54 PM 32.0 °F 24.8 °F 26.1 °F 79% 29.99 in 2.0 mi WNW 8.1 mph - 0.00 in Snow Light Snow